This is the latest recevied weather packets stored in our database for station/object OE3UKW. If no packets are shown the sender has not sent any weather packets the latest 10 day(s).
| Time | Temp. | Humidity | Pressure | Rain* | Wind** | Luminosity | Snow |
|---|---|---|---|---|---|---|---|
| 1777843273 | 15° C | 39% | 1017 hPa | 0 mm | - | 0 W/m² | - |
| 1777842673 | 15.56° C | 38% | 1017 hPa | 0 mm | - | 0 W/m² | - |
| 1777842073 | 15.56° C | 38% | 1017 hPa | 0 mm | - | 0 W/m² | - |
| 1777841473 | 15.56° C | 38% | 1016.9 hPa | 0 mm | - | 0 W/m² | - |
| 1777840873 | 15.56° C | 37% | 1016.9 hPa | 0 mm | - | 0 W/m² | - |
| 1777840273 | 16.11° C | 36% | 1016.9 hPa | 0 mm | - | 0 W/m² | - |
| 1777839673 | 16.67° C | 35% | 1017.1 hPa | 0 mm | - | 0 W/m² | - |
| 1777839073 | 16.67° C | 35% | 1017.2 hPa | 0 mm | - | 0 W/m² | - |
| 1777838473 | 17.22° C | 34% | 1017.2 hPa | 0 mm | - | 0 W/m² | - |
| 1777837873 | 17.78° C | 34% | 1017.2 hPa | 0 mm | - | 0 W/m² | - |
| 1777837273 | 17.78° C | 34% | 1017.1 hPa | 0 mm | - | 0 W/m² | - |
| 1777836673 | 17.78° C | 34% | 1017.3 hPa | 0 mm | - | 0 W/m² | - |
| 1777836073 | 17.78° C | 34% | 1017.2 hPa | 0 mm | - | 0 W/m² | - |
| 1777835473 | 17.78° C | 34% | 1017.2 hPa | 0 mm | - | 0 W/m² | - |
| 1777834873 | 18.33° C | 33% | 1017.2 hPa | 0 mm | - | 0 W/m² | - |
| 1777834273 | 18.33° C | 33% | 1017.1 hPa | 0 mm | - | 0 W/m² | - |
| 1777833673 | 18.89° C | 33% | 1017 hPa | 0 mm | - | 0 W/m² | - |
| 1777833073 | 19.44° C | 32% | 1017 hPa | 0 mm | - | 0 W/m² | - |
| 1777832473 | 19.44° C | 32% | 1016.9 hPa | 0 mm | - | 0 W/m² | - |
| 1777831873 | 20° C | 31% | 1016.8 hPa | 0 mm | - | 0 W/m² | - |
| 1777831273 | 20.56° C | 30% | 1016.7 hPa | 0 mm | - | 5 W/m² | - |
| 1777830673 | 21.11° C | 29% | 1016.6 hPa | 0 mm | - | 11 W/m² | - |
| 1777830072 | 21.11° C | 28% | 1016.5 hPa | 0 mm | - | 16 W/m² | - |
| 1777829472 | 21.67° C | 27% | 1016.4 hPa | 0 mm | - | 19 W/m² | - |
| 1777828873 | 22.22° C | 25% | 1016.3 hPa | 0 mm | - | 23 W/m² | - |
* Rain latest hour (hover to see other rain measurements)
** Current wind speed in m/s (hover to see current wind gust speed)